Aérodrome :
LOGIN :

S'inscrire | Disclaimer

   EN    FR    IT 

 










Légende :    VFR   VFR Marginal   IFR   IFR Intensif   IFR Très Intensif
Visi : 
Plafond : 
>= 8 km
>= 3000ft
5 à 8 km
1000 à 3000 ft
1500m à 5 km
500 à 1000 ft
800 à 1500m
200 à 500 ft
< 800m
< 200 ft
Symboles :   Orages  Brouillard  Fortes neiges  Fortes précipitations  Vent > 20 kt
SIGMETs :   Divers  Orages  Givrage  Turbulence  Onde Orograph.  Cendres Volcan.







- Altitude de l'aérodrome : 348 ft
- Code IATA : LDV
- Voir les cartes d'approche


LFRJ - Landivisiau

DERNIER METAR :
  • 210500Z AUTO 19011KT 9999 BKN012 BKN018 BKN025 14/13 Q1014

METARs EXPIRÉS :
  • 210430Z AUTO 17013KT 9999 FEW010 BKN025 BKN035 14/13 Q1014
  • 210400Z AUTO 18011KT 9999 FEW019 BKN027 BKN036 13/12 Q1014
  • 210330Z AUTO 18010KT 9999 -RA FEW032 BKN039 BKN054 13/12 Q1014
  • 210300Z AUTO 17012KT 9999 FEW047 BKN056 BKN230 13/12 Q1014
  • 210230Z AUTO 18012KT CAVOK 13/11 Q1014
  • 210200Z AUTO 18013KT 9999 FEW043 13/11 Q1014

Prévision TAF périmée.
Pas de NOTAMs connus pour ce terrain.



MET'MAP, la Météo Aéronautique d'un coup d'oeil ! - Copyright ORBIFLY Décembre 2007 - Disclaimer

ORBIFLY MET'MAP TEAM :

Programmation & Développement : Alexandra Zaïnal
Conception & Développement : Baudouin d'Aumeries
Co-Programmation & Développement : Marc-Olivier Méhu
Soutien technique & logistique : Manuel Goepfert

Contact : metmap@orbifly.com




SOURCES & CREDITS :

   NOAA